This is the latest recevied weather packets stored in our database for station/object IK1PCD-11. If no packets are shown the sender has not sent any weather packets the latest 10 day(s).
| Time | Temp. | Humidity | Pressure | Rain* | Wind** | Luminosity | Snow |
|---|---|---|---|---|---|---|---|
| 1787904491 | 21.11° C | 100% | 1021.8 hPa | - | - | - | - |
| 1787903591 | 20.56° C | 100% | 1022 hPa | - | - | - | - |
| 1787902690 | 20° C | 100% | 1022 hPa | - | - | - | - |
| 1787901798 | 20° C | 100% | 1022.1 hPa | - | - | - | - |
| 1787899990 | 19.44° C | 100% | 1022.2 hPa | - | - | - | - |
| 1787899086 | 18.89° C | 100% | 1022.6 hPa | - | - | - | - |
| 1787898185 | 18.33° C | 100% | 1022.9 hPa | - | - | - | - |
| 1787897285 | 18.33° C | 100% | 1022.6 hPa | - | - | - | - |
| 1787894584 | 16.67° C | 100% | 1023 hPa | - | - | - | - |
| 1787893684 | 16.67° C | 100% | 1022.9 hPa | - | - | - | - |
| 1787892783 | 16.11° C | 100% | 1022.7 hPa | - | - | - | - |
| 1787891887 | 16.67° C | 100% | 1022.3 hPa | - | - | - | - |
| 1787890987 | 16.67° C | 100% | 1022.3 hPa | - | - | - | - |
| 1787890086 | 16.67° C | 100% | 1021.9 hPa | - | - | - | - |
| 1787889186 | 17.22° C | 100% | 1021.9 hPa | - | - | - | - |
| 1787888286 | 16.67° C | 100% | 1022 hPa | - | - | - | - |
| 1787887386 | 17.22° C | 100% | 1021.9 hPa | - | - | - | - |
| 1787886486 | 17.22° C | 100% | 1022.1 hPa | - | - | - | - |
| 1787885586 | 17.22° C | 100% | 1022.3 hPa | - | - | - | - |
| 1787884685 | 17.22° C | 100% | 1022.6 hPa | - | - | - | - |
| 1787883785 | 17.22° C | 100% | 1022.8 hPa | - | - | - | - |
| 1787880185 | 17.22° C | 100% | 1023.4 hPa | - | - | - | - |
| 1787879285 | 17.22° C | 100% | 1023.1 hPa | - | - | - | - |
| 1787878385 | 16.67° C | 100% | 1022.4 hPa | - | - | - | - |
| 1787877485 | 16.67° C | 100% | 1022.6 hPa | - | - | - | - |
* Rain since midnight (hover to see other rain measurements)
** Current wind speed in m/s (hover to see current wind gust speed)